Home   Weather   Stans   Past weeks

Flag for Switzerland Past Weather in Stans, Nidwalden, Switzerland — Yesterday and Last 2 Weeks

Now
41 °F

Quite cool.


Feels Like: 41 °F
Forecast: 35 / 64 °F
Wind: 1 mph from Southwest

Location: Giswil

Current Time: Apr 29, 2017 at 11:44:50 am

Latest Report: Apr 29, 2017 at 11:00 am


Visibility: N/A

Pressure: 30.12 "Hg

Humidity: 73%

Dew Point: 33 °F

Location of StansLocation

Past Weather in Stans — Graph

°F

Stans Temperature Yesterday

Maximum temperature yesterday: 40 °F (at 5:00 pm)
Minimum temperature yesterday: 32 °F (at 1:00 am)
Average temperature yesterday: 34 °F

High & Low Weather Summary for the Past Weeks

 TemperatureHumidityPressure
High65 °F (Apr 24, 7:00 pm)100% (Apr 15, 8:00 pm)30.59 "Hg (Apr 15, 8:00 pm)
Low23 °F (Apr 21, 6:00 am)25% (Apr 21, 5:00 pm)29.73 "Hg (Apr 25, 11:00 pm)
Average43 °F82%30.15 "Hg
* Reported Apr 14 10:00 am — Apr 29 10:00 am, Stans, Weather by CustomWeather, © 2017

Note: Actual official high and low records may vary slightly from our data, if they occured in-between our weather recording intervals... More about our weather records

Advertising

Stans Weather History for the Previous 24 Hours

Scroll right to see more
 ConditionsComfort  
Time TempWeatherWind HumidityBarometerVisibility
10:00 am
Sat, Apr 29
38 °FChilly.1 mph84%30.15 "HgN/A
9:00 am35 °FChilly.1 mph96%30.16 "HgN/A
8:00 am30 °FChilly.No wind99%30.18 "HgN/A
7:00 am26 °FChilly.2 mph99%30.21 "HgN/A
6:00 am26 °FChilly.1 mph99%30.20 "HgN/A
5:00 am27 °FChilly.1 mph100%30.21 "HgN/A
4:00 am28 °FChilly.1 mph100%30.20 "HgN/A
3:00 am28 °FChilly.1 mph99%30.20 "HgN/A
2:00 am31 °FChilly.2 mph99%30.19 "HgN/A
1:00 am30 °FChilly.3 mph99%30.19 "HgN/A
12:00 am32 °FChilly.2 mph99%30.19 "HgN/A
11:00 pm
Fri, Apr 28
34 °FChilly.2 mph99%30.19 "HgN/A
10:00 pm33 °FChilly.2 mph100%30.18 "HgN/A
9:00 pm35 °FChilly.2 mph99%30.15 "HgN/A
8:00 pm36 °FChilly.2 mph99%30.14 "HgN/A
7:00 pm39 °FChilly.1 mph98%30.12 "HgN/A
6:00 pm38 °FChilly.1 mph100%30.10 "HgN/A
5:00 pm40 °FChilly.1 mph97%30.09 "HgN/A
4:00 pm37 °FChilly.1 mph99%30.09 "HgN/A
3:00 pm36 °FChilly.1 mph99%30.09 "HgN/A
2:00 pm36 °FChilly.1 mph99%30.08 "HgN/A
1:00 pm34 °FChilly.No wind100%30.06 "HgN/A
12:00 pm33 °FChilly.No wind99%30.06 "HgN/A
11:00 am33 °FChilly.1 mph99%30.03 "HgN/A
Weather by CustomWeather, © 2017

See weather overviewHow to use our weather pages